OBJECT V, 62396

Orbit data source: Space-Track

You're viewing an Uncataloged Satellite

Recently launched and/or uncataloged satellites may have evolving metadata. Metadata may include but not limited to: Owner, Maufacturer, Bus, Motor, and Mission.

OBJECT V, 62396 is a satellite in LEO that was launched on Sat, 21 Dec 2024 UTC via an FALCON 9 launch vehicle from the Air Force Western Test Range (AFWTR). Unknown objects in Earth's orbit typically refer to objects detected orbiting the Earth but have not yet been identified or cataloged. These objects could be anything from previously untracked satellites, spent rocket stages, debris from satellite collisions, or even natural meteoroids temporarily captured by Earth's gravity.

Loading next visibility...
Identifier
62396, 2024-247V
Orbit
LEO
Country
Flag of TBDTBD
Related business
None
Manufacturer
Unknown
Mission
Operational Commercial Communications
Bus & Motor
Unknown
Mass
Unknown
Launch date (UTC)
2024-12-21 (1 year ago)
Launch vehicle
FALCON 9
Launch site
Air Force Western Test Range (AFWTR)
Object type
Unknown
Shape & HBR
Box, 0.0 m
Radar Cross Section
0.004 m², Small (<0.1 m²)

Expand to show TLE details & history
Last TLE update: 1 day ago

TLE from 1 day ago
0 OBJECT V
1 62396U 24247V   25346.05587486  .00037924  00000-0  10081-2 0  9995
2 62396  44.9948 218.6019 0008757 192.8745 167.1920 15.37636851 54534
Epoch: 2025-12-12T01:20Z
TLE epoch observation values (Epoch: 2025-12-12T01:20:27.587Z)
Latitude
0.00001°
Longitude
117.48398°
Altitude
458.93 km
Speed
7.636 km/s
True Right ascension
14h 34m 24s
True Declination
0° 00' 00"
Sunlit
Object was in daylight at epoch
Visualization orbit readout
Latitude
Unknown
Longitude
Unknown
Altitude
Unknown
Speed
Unknown
Apparent Right ascension
Unknown
Apparent Declination
Unknown
Sunlit
N/A
Visualization observer readout
Local Sidereal Time
07:32:45
Azimuth
Unknown
Elevation
Unknown
Doppler factor
Unknown
Orbital elements
Apogee altitude
460.7 km
Perigee altitude
448.733 km
Semi-major axis
6,832.854 km
Eccentricity
0.00088
Inclination
44.9948°
RAAN
218.6019°
Arg. of periapsis
192.8745°
True anomaly
167.21422°
Mean anomaly
167.192°
Eccentric anomaly
167.20311°
Mean motion
3.84273 °/min
Orbital period
93.68 mins
BSTAR
0.0010081
Loading maneuver chart data...
Computing Atmospheric mass density...
Loading historical data...
Loading historical data...
Loading historical data...
Loading historical data...
Loading historical data...
Loading historical data...
Loading historical data...

Documentation

Showing up to 5 results
|